QPF
0.01 0.01 0.04 0.04 0.01 0.00 0.00 0.00 0.00 0.00 0.00 0.00 0.00 0.00 0.01 0.01 0.01 0.00 0.00 0.00 0.00 0.00 0.00 0.00 0.00 0.00 0.00 0.00 0.00 0.00 0.00 0.00 0.00 0.00 0.00 0.00 0.00 0.00 0.00 0.00 0.00 0.00 0.00 0.00 0.00
0.01 0.01 0.01 0.05 0.03 0.00 0.00 0.00 0.00 0.00 0.00 0.00 0.00 0.00 0.02 0.02 0.00 0.00 0.00 0.00 0.00 0.00 0.00 0.00 0.00 0.00 0.00 0.00 0.00 0.00 0.00 0.00 0.00 0.00 0.00 0.00 0.00 0.00 0.00 0.00 0.00 0.00 0.00 0.00 0.00
0.01 0.01 0.01 0.04 0.07 0.01 0.00 0.00 0.00 0.00 0.00 0.00 0.00 0.00 0.02 0.04 0.03 0.00 0.00 0.00 0.00 0.01 0.00 0.00 0.00 0.00 0.00 0.00 0.00 0.00 0.00 0.00 0.00 0.00 0.00 0.00 0.00 0.00 0.00 0.00 0.00 0.00 0.00 0.00 0.00
0.01 0.02 0.02 0.03 0.05 0.04 0.00 0.00 0.00 0.00 0.00 0.00 0.00 0.00 0.01 0.06 0.03 0.00 0.00 0.00 0.01 0.03 0.00 0.00 0.00 0.00 0.00 0.00 0.00 0.00 0.00 0.00 0.00 0.00 0.00 0.00 0.00 0.00 0.00 0.00 0.00 0.00 0.00 0.00 0.00
0.01 0.03 0.02 0.02 0.04 0.07 0.02 0.00 0.00 0.00 0.00 0.00 0.00 0.00 0.00 0.01 0.00 0.00 0.00 0.00 0.01 0.04 0.00 0.00 0.00 0.00 0.00 0.00 0.00 0.00 0.00 0.00 0.00 0.00 0.00 0.00 0.00 0.00 0.00 0.00 0.00 0.00 0.00 0.00 0.00
0.00 0.01 0.02 0.02 0.02 0.06 0.05 0.00 0.00 0.00 0.00 0.00 0.00 0.00 0.00 0.00 0.00 0.00 0.00 0.00 0.00 0.02 0.00 0.00 0.00 0.00 0.00 0.00 0.00 0.00 0.00 0.00 0.00 0.00 0.00 0.00 0.00 0.00 0.00 0.00 0.00 0.00 0.00 0.00 0.00
0.00 0.00 0.02 0.02 0.02 0.05 0.06 0.00 0.00 0.00 0.00 0.00 0.00 0.00 0.00 0.00 0.00 0.00 0.00 0.00 0.00 0.00 0.00 0.00 0.00 0.00 0.00 0.00 0.00 0.00 0.00 0.00 0.00 0.00 0.00 0.00 0.00 0.00 0.00 0.00 0.00 0.00 0.00 0.00 0.00
0.00 0.00 0.01 0.02 0.03 0.04 0.07 0.02 0.00 0.00 0.00 0.00 0.00 0.00 0.00 0.00 0.00 0.00 0.00 0.00 0.00 0.00 0.00 0.01 0.00 0.00 0.00 0.00 0.00 0.00 0.00 0.00 0.00 0.00 0.00 0.00 0.00 0.00 0.00 0.00 0.00 0.00 0.00 0.00 0.00
0.00 0.00 0.00 0.02 0.05 0.05 0.08 0.16 0.02 0.00 0.00 0.02 0.00 0.00 0.00 0.00 0.00 0.00 0.00 0.00 0.00 0.00 0.00 0.00 0.00 0.00 0.00 0.00 0.00 0.00 0.00 0.00 0.00 0.00 0.00 0.00 0.00 0.00 0.00 0.00 0.00 0.00 0.00 0.00 0.00
0.00 0.00 0.00 0.01 0.04 0.07 0.13 0.31 0.10 0.01 0.00 0.00 0.00 0.00 0.00 0.00 0.00 0.00 0.00 0.00 0.00 0.00 0.00 0.00 0.00 0.00 0.00 0.00 0.00 0.00 0.00 0.00 0.00 0.00 0.00 0.00 0.00 0.00 0.00 0.00 0.00 0.00 0.00 0.00 0.00
0.00 0.00 0.00 0.00 0.03 0.09 0.26 0.50 0.23 0.02 0.00 0.00 0.00 0.00 0.00 0.00 0.00 0.00 0.00 0.00 0.00 0.00 0.00 0.00 0.00 0.00 0.00 0.00 0.00 0.00 0.00 0.00 0.00 0.00 0.00 0.00 0.00 0.00 0.00 0.00 0.00 0.00 0.00 0.00 0.00
0.01 0.02 0.04 0.02 0.01 0.09 0.43 0.29 0.04 0.00 0.00 0.00 0.00 0.00 0.00 0.00 0.00 0.00 0.00 0.00 0.00 0.00 0.00 0.00 0.00 0.00 0.00 0.00 0.00 0.00 0.00 0.00 0.00 0.00 0.00 0.00 0.00 0.00 0.00 0.00 0.00 0.00 0.00 0.00 0.00
0.05 0.08 0.06 0.03 0.01 0.06 0.33 0.19 0.04 0.02 0.00 0.00 0.00 0.00 0.00 0.00 0.00 0.00 0.00 0.00 0.00 0.00 0.00 0.00 0.00 0.00 0.00 0.00 0.00 0.00 0.00 0.00 0.00 0.00 0.00 0.00 0.00 0.00 0.00 0.00 0.00 0.00 0.00 0.00 0.00
0.08 0.07 0.06 0.05 0.01 0.01 0.15 0.15 0.10 0.15 0.10 0.00 0.00 0.00 0.00 0.00 0.00 0.00 0.00 0.00 0.00 0.00 0.00 0.00 0.00 0.00 0.00 0.00 0.00 0.00 0.00 0.00 0.00 0.00 0.00 0.00 0.00 0.00 0.00 0.00 0.00 0.00 0.00 0.00 0.00
0.03 0.02 0.04 0.08 0.06 0.04 0.08 0.07 0.17 0.31 0.16 0.00 0.00 0.00 0.00 0.00 0.00 0.00 0.00 0.00 0.00 0.00 0.00 0.00 0.00 0.00 0.00 0.00 0.00 0.00 0.00 0.00 0.00 0.00 0.00 0.00 0.01 0.00 0.00 0.00 0.00 0.00 0.00 0.00 0.00
0.01 0.00 0.01 0.03 0.03 0.04 0.13 0.21 0.34 0.39 0.11 0.00 0.00 0.01 0.00 0.00 0.00 0.00 0.00 0.00 0.00 0.00 0.00 0.00 0.00 0.00 0.00 0.00 0.00 0.00 0.00 0.00 0.00 0.01 0.02 0.00 0.00 0.00 0.00 0.00 0.00 0.00 0.00 0.00 0.00
0.02 0.02 0.01 0.03 0.02 0.04 0.29 0.47 0.49 0.25 0.02 0.00 0.01 0.01 0.00 0.00 0.01 0.00 0.01 0.01 0.00 0.00 0.00 0.00 0.00 0.00 0.00 0.00 0.00 0.00 0.01 0.01 0.02 0.03 0.01 0.00 0.00 0.00 0.00 0.00 0.00 0.00 0.00 0.00 0.00
0.17 0.12 0.05 0.01 0.00 0.10 0.51 0.41 0.30 0.05 0.00 0.00 0.00 0.00 0.00 0.00 0.01 0.00 0.00 0.01 0.00 0.00 0.00 0.00 0.00 0.00 0.00 0.00 0.00 0.00 0.00 0.01 0.00 0.00 0.00 0.00 0.00 0.00 0.00 0.00 0.00 0.00 0.00 0.00 0.00
0.20 0.03 0.02 0.00 0.02 0.28 0.43 0.31 0.11 0.00 0.00 0.00 0.00 0.00 0.00 0.00 0.00 0.00 0.00 0.00 0.00 0.00 0.00 0.00 0.00 0.00 0.00 0.00 0.00 0.00 0.01 0.00 0.06 0.06 0.09 0.02 0.00 0.00 0.00 0.00 0.00 0.00 0.00 0.00 0.00
0.22 0.05 0.05 0.06 0.06 0.32 0.33 0.21 0.03 0.00 0.00 0.00 0.00 0.00 0.00 0.00 0.00 0.00 0.00 0.00 0.00 0.00 0.00 0.00 0.00 0.00 0.00 0.00 0.00 0.00 0.00 0.02 0.07 0.06 0.04 0.00 0.00 0.00 0.00 0.00 0.00 0.00 0.00 0.00 0.00
0.22 0.09 0.06 0.04 0.10 0.34 0.23 0.19 0.00 0.00 0.00 0.00 0.00 0.00 0.00 0.00 0.00 0.00 0.00 0.00 0.00 0.00 0.00 0.00 0.01 0.00 0.00 0.00 0.00 0.00 0.02 0.02 0.04 0.04 0.04 0.01 0.00 0.00 0.00 0.00 0.00 0.00 0.00 0.00 0.00
0.21 0.26 0.01 0.05 0.16 0.20 0.10 0.08 0.00 0.00 0.00 0.00 0.00 0.00 0.00 0.00 0.00 0.00 0.00 0.00 0.00 0.00 0.00 0.00 0.01 0.01 0.00 0.00 0.00 0.00 0.00 0.02 0.11 0.04 0.04 0.01 0.00 0.00 0.00 0.00 0.00 0.00 0.00 0.00 0.00
0.23 0.24 0.05 0.08 0.07 0.06 0.04 0.03 0.00 0.00 0.00 0.00 0.00 0.00 0.00 0.00 0.00 0.00 0.00 0.00 0.00 0.00 0.00 0.00 0.01 0.00 0.00 0.00 0.01 0.01 0.00 0.08 0.12 0.13 0.07 0.01 0.00 0.00 0.00 0.00 0.00 0.00 0.00 0.00 0.00
0.32 0.32 0.09 0.11 0.02 0.00 0.00 0.00 0.00 0.00 0.00 0.00 0.00 0.00 0.00 0.00 0.00 0.00 0.00 0.00 0.00 0.00 0.00 0.00 0.00 0.00 0.00 0.00 0.05 0.08 0.01 0.05 0.15 0.13 0.01 0.01 0.00 0.00 0.00 0.00 0.00 0.00 0.00 0.00 0.00
0.25 0.05 0.01 0.05 0.01 0.00 0.00 0.00 0.00 0.00 0.00 0.00 0.00 0.00 0.00 0.00 0.00 0.00 0.00 0.00 0.00 0.00 0.00 0.00 0.01 0.00 0.00 0.00 0.03 0.07 0.04 0.04 0.09 0.03 0.03 0.01 0.00 0.00 0.00 0.00 0.00 0.00 0.00 0.00 0.00
0.15 0.02 0.00 0.01 0.02 0.00 0.00 0.00 0.00 0.00 0.00 0.00 0.00 0.00 0.00 0.00 0.00 0.00 0.00 0.00 0.00 0.00 0.00 0.00 0.01 0.01 0.00 0.00 0.02 0.06 0.02 0.03 0.02 0.00 0.00 0.00 0.00 0.00 0.00 0.00 0.00 0.01 0.00 0.00 0.00
0.14 0.02 0.00 0.04 0.03 0.00 0.00 0.00 0.00 0.00 0.00 0.00 0.00 0.00 0.00 0.00 0.00 0.00 0.00 0.00 0.00 0.00 0.00 0.01 0.01 0.04 0.02 0.00 0.04 0.04 0.01 0.01 0.01 0.00 0.00 0.00 0.00 0.00 0.00 0.11 0.09 0.02 0.00 0.00 0.00
MSLP
1016.27 1015.87 1015.52 1015.17 1015.27 1015.36 1015.43 1015.54 1015.57 1015.44 1015.32 1015.27 1015.07 1014.61 1014.00 1013.90 1014.59 1015.22 1014.42 1013.79 1013.91 1014.12 1014.10 1013.62 1013.74 1013.65 1013.53 1012.92 1012.85 1012.74 1011.32 1009.89 1009.55 1009.72 1009.28 1009.63 1009.34 1009.24 1009.26 1008.84 1008.67 1008.41 1008.30 1008.57 1009.28
1016.10 1015.63 1015.11 1014.93 1014.82 1014.89 1015.07 1015.13 1015.19 1015.12 1015.03 1015.07 1014.93 1014.47 1013.97 1014.22 1014.21 1014.31 1013.71 1013.80 1013.83 1013.99 1013.73 1013.20 1013.40 1013.56 1013.13 1012.85 1012.77 1012.25 1011.19 1009.75 1009.69 1009.85 1009.89 1009.65 1009.48 1009.20 1009.24 1008.80 1008.50 1008.35 1008.24 1008.79 1009.10
1016.18 1015.60 1015.21 1014.67 1014.36 1014.43 1014.62 1014.65 1014.71 1014.76 1014.86 1014.89 1014.74 1014.44 1013.99 1014.13 1014.21 1013.29 1013.32 1013.61 1013.70 1013.65 1013.49 1013.39 1013.59 1013.55 1013.22 1012.94 1012.75 1012.16 1011.11 1010.37 1010.67 1010.67 1010.56 1010.12 1009.90 1009.74 1009.22 1008.58 1008.35 1008.06 1008.04 1008.57 1008.81
1016.32 1015.79 1015.23 1014.76 1014.30 1014.07 1014.12 1014.23 1014.39 1014.61 1014.63 1014.64 1014.58 1014.43 1014.14 1014.10 1013.83 1013.17 1013.34 1013.17 1013.26 1013.32 1013.64 1013.60 1013.66 1013.45 1013.15 1012.84 1012.75 1012.53 1011.83 1011.42 1011.24 1011.15 1011.02 1010.53 1010.23 1009.76 1009.35 1008.54 1008.46 1008.63 1008.63 1008.68 1008.48
1016.52 1015.87 1015.33 1014.94 1014.33 1013.82 1013.80 1013.99 1014.17 1014.38 1014.45 1014.45 1014.57 1014.40 1014.11 1013.70 1013.12 1013.08 1013.35 1013.27 1012.80 1013.23 1013.54 1013.50 1013.60 1013.33 1013.06 1013.00 1013.15 1012.66 1011.88 1012.02 1011.75 1011.71 1011.27 1010.95 1010.22 1009.98 1009.38 1009.06 1009.08 1008.89 1008.69 1008.45 1008.19
1016.25 1015.88 1015.38 1014.85 1014.42 1013.77 1013.46 1013.67 1013.86 1014.23 1014.24 1014.41 1014.35 1014.19 1013.84 1013.20 1013.03 1013.09 1013.05 1013.15 1012.89 1013.17 1013.45 1013.76 1013.63 1013.68 1013.44 1013.44 1013.26 1012.95 1012.66 1012.23 1011.89 1011.51 1011.23 1010.92 1010.05 1010.02 1008.88 1008.98 1008.67 1008.53 1008.20 1008.05 1007.71
1016.18 1015.85 1015.27 1014.81 1014.27 1013.85 1013.28 1013.26 1013.63 1013.85 1014.15 1014.26 1014.27 1013.93 1013.72 1012.75 1012.95 1012.95 1013.00 1013.28 1013.47 1013.23 1013.67 1014.06 1014.07 1014.00 1013.80 1013.69 1013.80 1013.31 1012.77 1011.96 1011.39 1011.25 1011.02 1010.82 1009.50 1008.84 1008.27 1008.34 1008.03 1007.85 1007.54 1007.41 1007.21
1015.84 1015.61 1015.23 1014.54 1014.11 1013.73 1013.11 1012.72 1013.20 1013.66 1013.87 1013.97 1013.98 1013.99 1013.07 1013.21 1013.25 1013.21 1013.17 1013.46 1013.77 1013.86 1013.87 1014.13 1014.37 1014.27 1014.17 1014.22 1013.72 1013.31 1012.92 1011.79 1011.02 1011.13 1010.71 1010.81 1008.51 1008.30 1008.01 1007.38 1007.54 1007.38 1007.08 1006.81 1006.59
1015.33 1015.14 1014.89 1014.44 1013.89 1013.53 1012.99 1012.47 1012.80 1013.26 1013.57 1013.69 1013.98 1013.93 1013.03 1013.29 1013.37 1013.04 1013.06 1013.21 1013.80 1014.05 1014.21 1014.43 1014.41 1014.26 1014.50 1014.07 1013.62 1013.22 1012.06 1011.90 1011.29 1011.08 1010.78 1010.37 1008.50 1008.26 1008.03 1007.90 1007.39 1007.02 1006.80 1006.46 1006.18
1014.99 1014.52 1014.28 1013.95 1013.54 1013.02 1012.72 1012.08 1012.40 1012.99 1013.57 1013.78 1014.06 1014.31 1013.22 1012.75 1013.00 1013.22 1013.31 1013.36 1013.78 1014.17 1014.59 1014.68 1014.63 1014.36 1014.16 1013.95 1012.62 1012.10 1012.42 1012.04 1011.46 1011.16 1011.04 1010.08 1008.75 1008.45 1008.26 1008.04 1007.49 1006.98 1006.47 1006.20 1006.12
1014.64 1014.17 1013.80 1013.36 1012.78 1012.57 1012.42 1012.01 1012.52 1013.08 1012.92 1012.06 1012.09 1012.41 1012.40 1012.79 1013.05 1013.23 1013.23 1013.42 1013.85 1014.16 1014.23 1014.73 1014.58 1013.91 1013.44 1013.64 1013.26 1013.18 1012.80 1012.14 1011.79 1011.73 1011.46 1009.92 1008.38 1008.11 1007.89 1007.36 1007.01 1006.68 1006.26 1005.79 1005.43
1014.42 1013.78 1013.32 1012.83 1012.35 1012.01 1012.05 1010.85 1010.34 1010.33 1011.85 1012.22 1012.06 1012.37 1012.55 1012.43 1012.79 1013.31 1013.42 1013.34 1013.75 1013.79 1014.41 1014.98 1014.22 1013.77 1014.16 1014.09 1013.98 1013.71 1013.08 1012.40 1012.09 1012.03 1011.83 1010.16 1007.13 1007.46 1007.18 1006.15 1005.95 1005.74 1005.22 1004.92 1004.79
1014.11 1013.41 1012.96 1012.53 1012.09 1011.40 1010.88 1010.55 1010.41 1010.93 1011.06 1011.96 1011.95 1012.00 1012.16 1012.38 1012.20 1012.85 1013.28 1013.37 1013.41 1013.84 1014.01 1013.74 1013.97 1013.99 1014.42 1014.33 1014.19 1013.71 1013.28 1012.92 1012.73 1012.33 1011.87 1010.84 1006.77 1005.38 1004.59 1004.52 1004.60 1004.68 1004.60 1004.20 1003.88
1013.30 1013.06 1012.71 1012.27 1011.75 1010.63 1010.22 1010.44 1011.36 1011.64 1011.79 1011.92 1011.70 1011.26 1011.81 1011.95 1012.17 1012.46 1012.92 1013.11 1013.61 1013.44 1013.97 1014.01 1013.77 1014.51 1014.57 1014.32 1014.19 1013.59 1013.40 1013.41 1013.32 1013.01 1011.68 1011.40 1007.41 1005.09 1004.38 1003.88 1003.81 1003.70 1003.37 1003.17 1002.94
1012.81 1012.54 1012.26 1012.41 1012.25 1010.80 1009.97 1009.81 1011.83 1011.90 1011.68 1011.33 1011.44 1011.33 1011.15 1011.54 1011.77 1012.63 1012.89 1012.91 1013.05 1013.41 1014.10 1013.74 1014.14 1014.37 1014.37 1014.01 1014.28 1013.70 1013.84 1013.69 1013.49 1013.00 1012.30 1010.79 1010.41 1004.70 1004.59 1003.75 1003.32 1002.76 1002.52 1002.25 1002.08
1011.78 1011.65 1011.67 1011.53 1011.38 1010.42 1010.61 1010.55 1011.65 1012.00 1010.52 1010.71 1011.11 1010.95 1011.19 1011.59 1011.78 1012.54 1013.02 1013.09 1013.22 1013.56 1013.87 1013.69 1014.34 1014.13 1013.73 1013.95 1014.13 1014.11 1014.16 1014.01 1013.70 1013.29 1011.79 1008.92 1008.91 1005.20 1003.72 1002.68 1002.20 1002.18 1001.78 1001.50 1001.35
1010.83 1010.59 1010.80 1010.92 1010.48 1010.10 1010.38 1010.50 1011.28 1010.28 1009.77 1010.25 1010.26 1010.52 1010.73 1011.21 1011.69 1011.97 1012.64 1012.95 1012.93 1013.49 1013.48 1013.52 1013.43 1013.72 1013.94 1014.00 1014.09 1014.09 1014.18 1013.48 1013.23 1012.52 1009.72 1008.26 1007.67 1005.10 1003.77 1003.22 1002.52 1001.71 1001.11 1001.02 1000.84
1009.53 1007.61 1006.35 1008.17 1009.27 1009.94 1009.92 1010.46 1009.41 1008.44 1008.19 1008.93 1009.40 1010.01 1010.13 1010.80 1011.26 1011.74 1012.20 1012.47 1012.77 1012.92 1013.12 1012.98 1012.52 1012.93 1013.35 1013.32 1012.92 1013.34 1013.39 1012.64 1011.33 1010.28 1008.75 1007.81 1006.06 1003.09 1002.86 1002.64 1002.06 1001.81 1001.39 1001.09 1000.65
1008.21 1007.07 1006.50 1006.97 1008.07 1009.16 1009.98 1009.14 1007.87 1007.11 1007.24 1007.60 1009.17 1009.51 1009.89 1010.38 1010.44 1011.21 1011.64 1011.61 1011.60 1012.31 1012.64 1012.51 1012.67 1012.73 1012.93 1013.03 1013.32 1013.23 1013.03 1012.65 1012.24 1011.09 1010.08 1007.52 1005.04 1003.57 1002.27 1002.46 1002.12 1001.66 1001.26 1000.95 1000.57
1008.44 1007.45 1007.18 1007.53 1008.33 1009.05 1009.44 1008.52 1007.61 1006.75 1006.48 1007.09 1007.73 1008.54 1008.89 1009.63 1009.97 1010.43 1010.78 1010.49 1010.69 1011.01 1011.52 1012.08 1012.43 1012.24 1012.55 1013.23 1012.93 1012.70 1012.75 1012.89 1012.58 1010.53 1008.21 1005.62 1004.35 1002.13 1001.65 1001.58 1001.35 1001.04 1000.88 1000.85 1000.44
1008.72 1008.21 1008.02 1008.15 1008.85 1009.39 1009.00 1008.32 1007.48 1007.11 1006.63 1006.66 1007.05 1007.61 1008.12 1008.75 1009.41 1009.78 1009.96 1010.20 1010.26 1010.50 1011.33 1011.89 1012.51 1012.48 1012.89 1012.05 1011.08 1012.12 1012.22 1012.30 1011.82 1010.25 1007.93 1005.47 1002.76 1001.49 1001.74 1001.62 1001.49 1001.44 1001.30 1001.02 1000.67
1008.76 1008.42 1008.11 1008.55 1009.01 1009.16 1008.44 1008.05 1007.18 1007.08 1006.67 1006.45 1006.78 1007.13 1007.65 1008.48 1009.00 1009.45 1009.52 1009.74 1010.05 1010.56 1010.98 1011.43 1011.79 1011.57 1010.66 1009.97 1010.44 1010.45 1010.53 1010.93 1010.76 1009.52 1008.14 1006.20 1001.89 1001.86 1001.70 1001.43 1001.80 1001.33 1001.32 1001.09 1000.87
1008.60 1008.23 1008.36 1008.42 1007.92 1007.90 1008.10 1007.62 1007.14 1006.97 1006.54 1006.41 1006.86 1007.14 1007.80 1008.18 1008.80 1009.14 1009.51 1009.65 1010.04 1010.14 1010.30 1011.11 1011.59 1011.11 1009.52 1009.88 1009.94 1010.02 1009.34 1009.64 1009.93 1009.57 1007.39 1006.19 1001.46 1001.99 1001.68 1001.15 1001.24 1001.07 1001.03 1000.97 1000.82
1007.84 1007.90 1008.24 1008.21 1007.42 1007.17 1007.13 1007.12 1006.77 1006.70 1006.67 1006.67 1007.09 1007.38 1007.76 1008.17 1008.66 1009.08 1009.42 1009.58 1009.74 1009.95 1010.54 1010.82 1010.68 1010.53 1009.59 1008.60 1009.04 1009.45 1008.84 1009.07 1009.23 1008.12 1005.96 1004.52 1002.01 1001.92 1001.65 1001.25 1001.12 1001.19 1001.24 1000.94 1000.71
1008.01 1007.88 1007.63 1007.72 1007.28 1006.72 1006.75 1006.81 1006.72 1006.78 1006.94 1006.93 1007.37 1007.33 1007.50 1007.88 1008.45 1008.77 1009.19 1009.43 1009.68 1009.88 1010.29 1010.70 1010.36 1010.30 1009.45 1008.99 1008.57 1008.11 1007.74 1007.79 1007.56 1006.40 1005.92 1002.42 1002.26 1001.31 1001.27 1001.26 1001.30 1001.31 1000.98 1000.79 1000.86
1008.84 1008.19 1007.49 1007.37 1007.28 1006.77 1006.81 1006.78 1006.82 1006.93 1006.92 1007.16 1007.12 1007.45 1007.65 1007.66 1007.91 1008.19 1008.65 1009.01 1008.84 1009.41 1009.97 1010.19 1009.97 1009.82 1008.70 1008.03 1007.18 1006.54 1006.12 1006.10 1006.02 1005.64 1004.49 1003.65 1002.10 1001.48 1001.54 1001.56 1001.88 1001.95 1001.59 1001.29 1001.46
1009.74 1009.11 1008.48 1008.37 1007.65 1007.04 1006.93 1006.91 1006.86 1006.79 1007.44 1007.53 1007.54 1007.67 1007.79 1007.84 1008.03 1008.18 1008.45 1008.57 1008.77 1008.84 1009.35 1009.99 1010.12 1009.95 1007.68 1006.65 1005.68 1005.18 1004.69 1004.65 1004.49 1004.25 1003.88 1002.85 1000.99 1001.74 1002.00 1002.43 1002.86 1002.33 1001.96 1001.75 1001.72
Thickness
5553 5556 5561 5567 5568 5571 5572 5573 5575 5579 5582 5587 5592 5600 5609 5615 5613 5614 5619 5632 5636 5638 5641 5648 5650 5652 5653 5656 5660 5659 5653 5661 5670 5668 5680 5686 5682 5694 5699 5698 5704 5710 5712 5718 5720
5548 5553 5558 5560 5563 5565 5567 5568 5570 5573 5577 5579 5583 5591 5599 5602 5606 5608 5620 5624 5628 5631 5634 5640 5639 5643 5644 5648 5650 5650 5650 5668 5679 5676 5672 5679 5680 5686 5685 5690 5696 5702 5712 5712 5715
5542 5546 5550 5554 5559 5561 5561 5563 5565 5568 5569 5572 5576 5583 5590 5593 5593 5605 5614 5616 5620 5625 5630 5633 5634 5634 5634 5642 5642 5647 5649 5666 5662 5666 5668 5670 5672 5678 5677 5679 5693 5697 5702 5704 5707
5534 5537 5542 5546 5551 5554 5556 5558 5559 5560 5563 5566 5570 5573 5580 5584 5587 5600 5603 5611 5615 5620 5621 5621 5623 5623 5627 5629 5637 5632 5647 5651 5653 5658 5658 5660 5669 5669 5672 5684 5693 5693 5696 5696 5700
5524 5528 5532 5536 5541 5547 5549 5551 5552 5553 5556 5559 5561 5565 5573 5578 5586 5594 5595 5602 5610 5612 5611 5614 5614 5620 5620 5625 5626 5628 5642 5640 5645 5646 5653 5657 5661 5661 5665 5680 5684 5685 5689 5692 5697
5515 5518 5522 5527 5532 5538 5542 5543 5546 5545 5549 5551 5556 5560 5567 5572 5581 5584 5589 5594 5602 5604 5605 5607 5609 5613 5615 5615 5618 5625 5627 5632 5637 5642 5646 5645 5656 5652 5673 5676 5677 5680 5685 5690 5695
5504 5505 5510 5516 5522 5527 5533 5538 5539 5542 5542 5545 5549 5556 5559 5573 5574 5579 5582 5584 5589 5596 5594 5597 5601 5602 5607 5606 5612 5616 5616 5630 5636 5638 5638 5643 5647 5652 5675 5671 5672 5676 5684 5688 5693
5491 5493 5497 5505 5512 5518 5525 5532 5533 5534 5537 5541 5547 5550 5559 5563 5565 5570 5574 5576 5580 5585 5589 5592 5593 5594 5595 5599 5604 5605 5610 5616 5633 5631 5637 5634 5645 5660 5669 5673 5668 5671 5679 5684 5691
5473 5477 5481 5489 5498 5506 5516 5525 5527 5529 5532 5538 5541 5544 5555 5557 5559 5566 5568 5570 5572 5576 5579 5583 5585 5587 5587 5589 5593 5599 5610 5606 5615 5625 5628 5631 5643 5654 5661 5660 5661 5667 5671 5677 5683
5446 5454 5461 5472 5483 5495 5506 5518 5519 5523 5525 5531 5533 5536 5548 5556 5557 5559 5562 5566 5565 5567 5567 5572 5575 5579 5582 5584 5600 5606 5595 5602 5606 5617 5615 5622 5633 5644 5649 5648 5653 5659 5666 5670 5674
5418 5427 5439 5452 5470 5483 5495 5506 5507 5513 5525 5540 5545 5546 5549 5550 5552 5554 5558 5560 5560 5562 5563 5564 5568 5573 5585 5585 5591 5588 5590 5594 5601 5604 5600 5615 5630 5634 5641 5647 5649 5653 5658 5663 5668
5391 5402 5418 5432 5451 5470 5482 5501 5523 5532 5520 5527 5535 5538 5542 5549 5548 5549 5554 5556 5556 5559 5560 5558 5564 5578 5575 5576 5574 5576 5580 5586 5592 5592 5590 5605 5634 5632 5634 5645 5648 5651 5657 5662 5665
5374 5384 5398 5415 5434 5460 5477 5495 5511 5515 5527 5520 5528 5533 5539 5544 5551 5548 5551 5553 5557 5555 5559 5568 5570 5569 5564 5566 5565 5571 5573 5575 5574 5580 5582 5584 5623 5640 5650 5653 5652 5651 5653 5658 5661
5371 5375 5385 5400 5425 5452 5474 5488 5493 5500 5504 5518 5522 5532 5536 5543 5545 5550 5552 5554 5551 5558 5556 5561 5568 5556 5557 5560 5562 5564 5570 5564 5559 5557 5564 5570 5593 5628 5637 5642 5643 5646 5649 5653 5657
5373 5373 5379 5389 5403 5441 5471 5483 5478 5491 5524 5514 5512 5527 5537 5541 5547 5541 5547 5551 5553 5553 5552 5559 5552 5549 5546 5553 5552 5554 5553 5551 5548 5545 5542 5562 5528 5611 5616 5620 5629 5637 5644 5649 5652
5378 5379 5380 5389 5406 5433 5451 5469 5473 5484 5518 5505 5511 5522 5527 5536 5541 5538 5540 5546 5550 5549 5549 5555 5547 5549 5553 5549 5545 5544 5538 5534 5531 5525 5522 5567 5536 5577 5607 5613 5621 5625 5632 5637 5642
5384 5384 5382 5389 5411 5431 5448 5462 5472 5505 5510 5503 5516 5524 5532 5534 5536 5541 5537 5536 5545 5533 5539 5546 5548 5545 5542 5538 5535 5532 5523 5523 5514 5508 5534 5552 5527 5556 5588 5591 5594 5606 5616 5620 5632
5391 5402 5413 5413 5414 5427 5446 5457 5494 5507 5521 5520 5524 5526 5535 5535 5537 5538 5536 5535 5541 5540 5539 5542 5555 5546 5540 5535 5537 5523 5521 5523 5521 5532 5535 5531 5524 5555 5565 5570 5577 5580 5590 5603 5618
5401 5405 5410 5419 5425 5431 5440 5473 5501 5518 5525 5528 5520 5524 5527 5533 5543 5538 5538 5542 5546 5540 5534 5533 5530 5538 5535 5529 5522 5512 5500 5513 5498 5506 5483 5517 5535 5546 5558 5547 5553 5559 5570 5585 5603
5402 5409 5412 5418 5424 5436 5449 5479 5493 5516 5527 5528 5526 5531 5533 5533 5540 5540 5540 5548 5547 5548 5546 5539 5528 5537 5529 5516 5514 5509 5508 5492 5482 5489 5503 5523 5523 5539 5547 5547 5552 5554 5561 5573 5592
5402 5409 5410 5418 5427 5434 5465 5471 5496 5510 5522 5528 5529 5533 5540 5537 5539 5540 5543 5544 5546 5545 5539 5532 5523 5527 5513 5511 5525 5499 5488 5482 5486 5495 5502 5513 5536 5552 5540 5540 5540 5542 5549 5560 5577
5405 5410 5415 5420 5430 5437 5465 5468 5499 5507 5519 5527 5531 5536 5537 5535 5534 5536 5540 5543 5542 5537 5530 5528 5524 5519 5530 5539 5527 5521 5512 5500 5483 5489 5485 5499 5526 5544 5537 5538 5531 5538 5541 5553 5569
5410 5417 5420 5428 5452 5461 5466 5481 5501 5507 5517 5525 5526 5532 5532 5532 5529 5536 5535 5538 5536 5536 5535 5527 5512 5516 5540 5528 5521 5510 5518 5508 5480 5476 5491 5490 5529 5528 5528 5531 5532 5534 5539 5549 5563
5423 5431 5431 5440 5466 5475 5489 5493 5502 5510 5515 5522 5521 5525 5527 5527 5530 5531 5531 5533 5535 5534 5528 5526 5526 5521 5535 5538 5527 5507 5513 5497 5482 5490 5512 5512 5522 5520 5521 5525 5528 5532 5536 5546 5560
5433 5440 5453 5456 5473 5490 5495 5501 5504 5509 5513 5520 5517 5523 5526 5528 5528 5530 5529 5531 5529 5529 5527 5523 5515 5515 5525 5526 5521 5516 5514 5508 5496 5509 5502 5534 5526 5529 5526 5524 5525 5531 5539 5547 5554
5434 5450 5468 5473 5480 5493 5493 5501 5505 5507 5513 5513 5519 5519 5523 5530 5533 5533 5531 5529 5535 5531 5526 5526 5522 5515 5519 5529 5533 5523 5524 5520 5513 5511 5520 5521 5525 5532 5528 5528 5525 5525 5532 5542 5547
5437 5447 5464 5464 5478 5493 5495 5500 5505 5512 5509 5510 5515 5517 5519 5525 5529 5531 5531 5532 5533 5534 5529 5517 5512 5513 5536 5549 5548 5540 5535 5531 5523 5522 5524 5522 5538 5532 5524 5520 5515 5525 5536 5543 5552